NOAA-12
1 21263U 91032A 11167.52517753 .00000077 00000-0 51025-4 0 329
2 21263 098.7471 185.3720 0012176 184.4243 175.6831 14.25718525 44314
MET-2/21
1 22782U 93055A 11167.82259757 -.00000000 00000-0 -13904-4 0 1236
2 22782 082.5467 323.1653 0024015 099.4695 260.9191 13.83658802898504
MET-3/5
1 21655U 91056A 11167.83004627 .00000051 00000-0 10000-3 0 1369
2 21655 082.5583 051.0291 0013856 152.7327 207.4493 13.17027428953674
OKEAN-0
1 25860U 99039A 11167.95808116 .00000169 00000-0 33191-4 0 3356
2 25860 097.8846 134.4088 0001518 038.3597 321.7717 14.73794058640627
FENGYUN1
1 25730U 99025A 11167.95824282 .00000576 00000-0 35901-3 0 3508
2 25730 098.8171 129.1594 0023947 318.3411 041.5934 14.08632226623034
CAPE1
1 31130U 07012P 11166.98838260 .00000345 00000-0 89582-4 0 2000
2 31130 097.8970 191.0505 0102096 184.4270 175.6043 14.52402969220467
HUBBLE
1 20580U 90037B 11167.05457208 .00000742 00000-0 43483-4 0 7819
2 20580 028.4720 023.8497 0003427 111.2522 248.8269 15.01392892959487
CP6
1 35004U 09028D 11167.16137849 .00082638 00000-0 58131-3 0 6564
2 35004 040.4585 139.2318 0021415 231.1528 128.7282 15.72749584117351
AAUSAT2
1 32788U 08021F 11167.16214418 .00001004 00000-0 13099-3 0 49
2 32788 097.8488 231.2219 0015242 175.5762 184.5569 14.82635268169426
DO-64
1 32789U 08021G 11167.17207721 .00001314 00000-0 16747-3 0 205
2 32789 097.8584 232.2334 0015499 173.4584 186.6801 14.83110635169436
PHARMSAT
1 35002U 09028B 11167.18622269 .00008549 00000-0 15861-3 0 5740
2 35002 040.4683 176.5813 0023893 212.4342 147.5001 15.48659321116955
COMPASS
1 32787U 08021E 11167.19832111 .00000476 00000-0 65880-4 0 135
2 32787 097.8476 231.0336 0015416 175.3514 184.7891 14.82444919169416
CO-66
1 32791U 08021J 11167.21477042 .00000792 00000-0 10590-3 0 61
2 32791 097.8497 230.9919 0016136 173.9682 186.1759 14.82135833169364
HAWKSAT1
1 35003U 09028C 11167.32610145 .00050835 00000-0 47983-3 0 6552
2 35003 040.4519 146.9522 0021704 232.8059 127.1285 15.65747541117299
CO-58
1 28895U 05043F 11167.65410367 .00000289 00000-0 69390-4 0 9004
2 28895 097.9675 044.0646 0017082 220.2169 139.7777 14.60116529300167
METEOR-M
1 35865U 09049A 11167.65873645 .00000176 00000-0 10000-3 0 4644
2 35865 098.7059 222.7943 0003437 038.9059 321.2325 14.21839656 90515
FALCON
1 30776U 07006E 11167.84432077 .00001235 00000-0 89004-4 0 1085
2 30776 035.4354 349.0643 0000784 013.6964 346.3774 15.04677837234995
RS-38
1 35869U 09049E 11167.86996656 .00000177 00000-0 10000-3 0 4583
2 35869 098.7025 223.0389 0005557 038.6416 321.5144 14.22014018 90553
RS-30
1 32953U 08025A 11167.90605192 .00000010 00000-0 00000 0 0 8264
2 32953 082.5006 162.8974 0019992 031.3830 328.8440 12.43013620139059
TACSAT-3
1 35001U 09028A 11167.92851904 .00009993 00000-0 18197-3 0 6190
2 35001 040.4524 174.3256 0022662 211.0016 148.9466 15.49088866117043
MAST
1 31126U 07012K 11167.96687905 .00000184 00000-0 51518-4 0 1853
2 31126 097.8948 195.2049 0094949 170.6070 189.6932 14.53757508221059
ISS
1 25544U 98067A 11168.09994693 -.00007392 00000-0 -69523-4 0 5499
2 25544 051.6453 161.1888 0013916 293.6664 149.7962 15.64386723720894
